period_start,C,m1,H,J0,J1,J2,J3,J4,J5,JA,JB,JC,JD,JJ,JK,JN,#
2018-10-03 00:04:15,0.00,0.00,0.00,20.97,25.37,27.45,-0.03,-2.17,1004.37,2034.98,3751.06,3075.00,3539.27,0.00,0.00,0.00,0000 0000 0000 A000 020008
2018-10-03 00:09:16,0.00,0.00,0.00,20.97,25.37,27.46,-0.03,-2.23,1004.40,2034.98,3751.04,3075.00,3539.17,0.00,0.00,0.00,0000 0000 0000 A000 020008
2018-10-03 00:14:17,0.00,0.00,0.00,20.97,25.37,27.47,-0.03,-2.22,1004.41,2034.97,3751.05,3075.00,3539.16,0.00,0.00,0.00,0000 0000 0000 A000 020008
2018-10-03 00:19:18,0.00,0.00,0.00,20.98,25.37,27.44,-0.03,-2.21,1004.41,2034.98,3751.07,3075.00,3539.25,0.00,0.00,0.00,0000 0000 0000 A000 020008
2018-10-03 00:24:19,0.00,0.00,0.00,20.97,25.37,27.47,-0.04,-2.22,1004.41,2034.99,3751.16,3075.01,3539.52,0.00,0.00,0.00,0000 0000 0000 A000 020008
2018-10-03 00:29:20,0.00,0.00,0.00,20.97,25.37,27.47,-0.03,-2.23,1004.41,2034.99,3751.26,3075.01,3539.63,0.00,0.00,0.00,0000 0000 0000 A000 020008
2018-10-03 00:34:21,0.00,0.00,0.00,20.97,25.37,27.50,-0.04,-2.23,1004.41,2034.99,3751.20,3075.00,3539.54,0.00,0.00,0.00,0000 0000 0000 A000 020008
2018-10-03 00:39:22,0.00,0.00,0.00,20.97,25.37,27.44,-0.04,-2.21,1004.41,2034.99,3751.26,3075.01,3539.53,0.00,0.00,0.00,0000 0000 0000 A000 020008
2018-10-03 00:44:23,0.00,0.00,0.00,20.97,25.37,27.48,-0.04,-2.22,1004.38,2034.97,3751.13,3075.01,3539.35,0.00,0.00,0.00,0000 0000 0000 A000 020008
2018-10-03 00:49:24,0.00,0.00,0.00,20.97,25.37,27.49,-0.04,-2.22,1004.38,2034.99,3751.26,3075.02,3539.53,0.00,0.00,0.00,0000 0000 0000 A000 020008
2018-10-03 00:54:26,0.00,0.00,0.00,20.98,25.37,27.45,-0.03,-2.17,1004.37,2034.98,3751.27,3075.01,3539.52,0.00,0.00,0.00,0000 0000 0000 A000 020008
2018-10-03 00:59:27,0.00,0.00,0.00,20.97,25.37,27.46,-0.03,-2.17,1004.41,2034.98,3751.04,3075.00,3539.11,0.00,0.00,0.00,0000 0000 0000 A000 020008
2018-10-03 01:04:28,0.00,0.00,0.00,20.97,25.37,27.44,-0.04,-2.16,1004.40,2034.98,3751.09,3075.00,3539.20,0.00,0.00,0.00,0000 0000 0000 A000 020008
2018-10-03 01:09:29,0.00,0.00,0.00,20.97,25.37,27.43,-0.05,-2.17,1004.41,2034.99,3751.11,3075.00,3539.26,0.00,0.00,0.00,0000 0000 0000 A000 020008
2018-10-03 01:14:31,0.00,0.00,0.00,20.97,25.37,27.49,-0.04,-2.18,1004.41,2034.98,3751.09,3075.00,3539.15,0.00,0.00,0.00,0000 0000 0000 A000 020008
2018-10-03 01:19:32,0.00,0.00,0.00,20.97,25.37,27.48,-0.05,-2.17,1004.41,2034.97,3751.09,3075.00,3539.23,0.00,0.00,0.00,0000 0000 0000 A000 020008
2018-10-03 01:24:33,0.00,0.00,0.00,20.97,25.37,27.46,-0.04,-2.16,1004.41,2034.99,3751.20,3075.02,3539.45,0.00,0.00,0.00,0000 0000 0000 A000 020008
2018-10-03 01:29:34,0.00,0.00,0.00,20.97,25.37,27.45,-0.04,-2.20,1004.41,2034.98,3751.05,3075.00,3539.07,0.00,0.00,0.00,0000 0000 0000 A000 020008
2018-10-03 01:34:35,0.00,0.00,0.00,20.97,25.37,27.52,-0.04,-2.14,1004.41,2034.97,3751.01,3075.00,3539.02,0.00,0.00,0.00,0000 0000 0000 A000 020008
2018-10-03 01:39:37,0.00,0.00,0.00,20.97,25.37,27.51,-0.05,-2.23,1004.41,2034.96,3751.03,3075.00,3539.11,0.00,0.00,0.00,0000 0000 0000 A000 020008
2018-10-03 01:44:38,0.00,0.00,0.00,20.97,25.37,27.47,-0.04,-2.18,1004.41,2034.97,3751.02,3075.00,3539.03,0.00,0.00,0.00,0000 0000 0000 A000 020008
2018-10-03 01:49:39,0.00,0.00,0.00,20.97,25.37,27.51,-0.04,-2.16,1004.42,2034.98,3751.02,3075.00,3539.07,0.00,0.00,0.00,0000 0000 0000 A000 020008
2018-10-03 01:54:40,0.00,0.00,0.00,20.97,25.37,27.48,-0.04,-2.22,1004.42,2034.98,3751.01,3075.00,3539.05,0.00,0.00,0.00,0000 0000 0000 A000 020008
2018-10-03 01:59:42,0.00,0.00,0.00,20.97,25.37,27.47,-0.05,-2.23,1004.42,2034.99,3751.02,3075.00,3539.05,0.00,0.00,0.00,0000 0000 0000 A000 020008
2018-10-03 02:04:43,0.00,0.00,0.00,20.97,25.37,27.49,-0.05,-2.22,1004.42,2034.97,3751.03,3075.00,3539.04,0.00,0.00,0.00,0000 0000 0000 A000 020008
2018-10-03 02:09:45,0.00,0.00,0.00,20.96,25.37,27.43,-0.05,-2.24,1004.48,2034.98,3751.01,3075.00,3539.04,0.00,0.00,0.00,0000 0000 0000 A000 020008
2018-10-03 02:14:46,0.00,0.00,0.00,20.96,25.37,27.48,-0.04,-2.18,1004.53,2034.98,3751.03,3075.00,3539.06,0.00,0.00,0.00,0000 0000 0000 A000 020008
2018-10-03 02:19:47,0.00,0.00,0.00,20.96,25.37,27.50,-0.05,-2.22,1004.62,2034.97,3751.04,3075.00,3539.08,0.00,0.00,0.00,0000 0000 0000 A000 020008
2018-10-03 02:24:48,0.00,0.00,0.00,20.96,25.37,27.47,-0.05,-2.22,1004.57,2034.98,3751.07,3075.00,3539.16,0.00,0.00,0.00,0000 0000 0000 A000 020008
2018-10-03 02:29:50,0.00,0.00,0.00,20.97,25.37,27.44,-0.05,-2.21,1004.60,2034.99,3751.06,3075.00,3539.15,0.00,0.00,0.00,0000 0000 0000 A000 020008
2018-10-03 02:34:51,0.00,0.00,0.00,20.97,25.37,27.46,-0.05,-2.23,1004.69,2034.98,3751.07,3075.00,3539.12,0.00,0.00,0.00,0000 0000 0000 A000 020008
2018-10-03 02:39:52,0.00,0.00,0.00,20.97,25.37,27.46,-0.05,-2.23,1004.70,2034.98,3751.06,3075.00,3539.06,0.00,0.00,0.00,0000 0000 0000 A000 020008
2018-10-03 02:44:54,0.00,0.00,0.00,20.97,25.36,27.49,-0.05,-2.23,1004.79,2034.98,3751.05,3075.00,3539.04,0.00,0.00,0.00,0000 0000 0000 A000 020008
2018-10-03 02:49:55,0.00,0.00,0.00,20.97,25.36,27.46,-0.04,-2.18,1004.83,2034.98,3751.05,3075.01,3539.06,0.00,0.00,0.00,0000 0000 0000 A000 020008
2018-10-03 02:54:56,0.00,0.00,0.00,20.97,25.36,27.52,-0.05,-2.23,1004.87,2034.99,3751.04,3075.00,3539.09,0.00,0.00,0.00,0000 0000 0000 A000 020008
2018-10-03 02:59:58,0.00,0.00,0.00,20.97,25.36,27.49,-0.05,-2.19,1004.86,2034.98,3751.11,3075.00,3539.23,0.00,0.00,0.00,0000 0000 0000 A000 020008
2018-10-03 03:04:59,0.00,0.00,0.00,20.99,25.36,27.49,-0.05,-2.26,1004.82,2034.97,3751.06,3075.01,3539.07,0.00,0.00,0.00,0000 0000 0000 A000 020008
2018-10-03 03:10:00,0.00,0.00,0.00,20.99,25.37,27.47,-0.05,-2.17,1004.77,2034.99,3751.11,3075.00,3539.13,0.00,0.00,0.00,0000 0000 0000 A000 020008
2018-10-03 03:15:02,0.00,0.00,0.00,20.99,25.37,27.49,-0.05,-2.23,1004.81,2034.98,3751.11,3075.02,3539.15,0.00,0.00,0.00,0000 0000 0000 A000 020008
2018-10-03 03:20:03,0.00,0.00,0.00,20.99,25.37,27.42,-0.05,-2.23,1004.74,2034.99,3751.12,3075.01,3539.19,0.00,0.00,0.00,0000 0000 0000 A000 020008
2018-10-03 03:25:04,0.00,0.00,0.00,21.00,25.37,27.45,-0.05,-2.22,1004.65,2034.98,3751.06,3075.00,3539.08,0.00,0.00,0.00,0000 0000 0000 A000 020008
2018-10-03 03:30:05,0.00,0.00,0.00,21.00,25.37,27.44,-0.05,-2.22,1004.70,2034.97,3751.03,3075.01,3539.05,0.00,0.00,0.00,0000 0000 0000 A000 020008
2018-10-03 03:35:07,0.00,0.00,0.00,21.02,25.37,27.51,-0.05,-2.17,1004.86,2034.97,3751.04,3075.00,3539.03,0.00,0.00,0.00,0000 0000 0000 A000 020008
2018-10-03 03:40:08,0.00,0.00,0.00,21.02,25.37,27.53,-0.05,-2.27,1004.89,2034.97,3751.01,3075.00,3539.02,0.00,0.00,0.00,0000 0000 0000 A000 020008
2018-10-03 03:45:09,0.00,0.00,0.00,21.02,25.37,27.55,-0.05,-2.23,1004.90,2034.97,3751.00,3075.00,3539.01,0.00,0.00,0.00,0000 0000 0000 A000 020008
2018-10-03 03:50:10,0.00,0.00,0.00,21.03,25.37,27.51,-0.05,-2.28,1004.90,2034.99,3751.01,3075.00,3539.02,0.00,0.00,0.00,0000 0000 0000 A000 020008
2018-10-03 03:55:12,0.00,0.00,0.00,21.04,25.37,27.56,-0.05,-2.30,1004.90,2034.98,3751.06,3075.01,3539.08,0.00,0.00,0.00,0000 0000 0000 A000 020008
2018-10-03 04:00:13,0.00,0.00,0.00,21.04,25.37,27.53,-0.05,-2.23,1004.90,2034.98,3751.09,3075.01,3539.12,0.00,0.00,0.00,0000 0000 0000 A000 020008
2018-10-03 04:05:14,0.00,0.00,0.00,21.06,25.37,27.55,-0.05,-2.29,1004.90,2034.97,3751.05,3075.01,3539.09,0.00,0.00,0.00,0000 0000 0000 A000 020008
2018-10-03 04:10:15,0.00,0.00,0.00,21.07,25.38,27.60,-0.05,-2.27,1004.91,2034.96,3751.03,3075.00,3539.03,0.00,0.00,0.00,0000 0000 0000 A000 020008
2018-10-03 04:15:16,0.00,0.00,0.00,21.08,25.39,27.55,-0.05,-2.30,1004.93,2034.95,3751.03,3075.00,3539.03,0.00,0.00,0.00,0000 0000 0000 A000 020008
2018-10-03 04:20:18,0.00,0.00,0.00,21.09,25.40,27.57,-0.05,-2.29,1004.92,2034.96,3751.01,3075.00,3539.00,0.00,0.00,0.00,0000 0000 0000 A000 020008
2018-10-03 04:25:19,0.00,0.00,0.00,21.10,25.40,27.58,-0.05,-2.27,1004.90,2034.93,3751.00,3075.00,3539.01,0.00,0.00,0.00,0000 0000 0000 A000 020008
2018-10-03 04:30:20,0.00,0.00,0.00,21.12,25.40,27.56,-0.05,-2.25,1004.91,2034.95,3751.01,3075.00,3539.01,0.00,0.00,0.00,0000 0000 0000 A000 020008
2018-10-03 04:35:21,0.00,0.00,0.00,21.12,25.40,27.60,-0.05,-2.27,1004.93,2034.90,3751.00,3075.00,3539.00,0.00,0.00,0.00,0000 0000 0000 A000 020008
2018-10-03 04:40:22,0.00,0.00,0.00,21.13,25.42,27.62,-0.05,-2.23,1004.91,2034.95,3751.00,3075.00,3539.00,0.00,0.00,0.00,0000 0000 0000 A000 020008
2018-10-03 04:45:23,0.00,0.00,0.00,21.14,25.42,27.63,-0.05,-2.23,1004.91,2034.91,3751.00,3075.00,3539.00,0.00,0.00,0.00,0000 0000 0000 A000 020008
2018-10-03 04:50:25,0.00,0.00,0.00,21.14,25.42,27.59,-0.05,-2.23,1004.95,2034.80,3751.00,3074.99,3539.00,0.00,0.00,0.00,0000 0000 0000 A000 020008
2018-10-03 04:55:26,0.00,0.00,0.00,21.17,25.42,27.64,-0.05,-2.27,1004.97,2034.70,3751.00,3074.98,3539.00,0.00,0.00,0.00,0000 0000 0000 A000 020008
2018-10-03 05:00:27,0.00,0.00,0.00,21.17,25.44,27.65,-0.05,-2.30,1004.99,2034.66,3751.00,3074.98,3539.00,0.00,0.00,0.00,0000 0000 0000 A000 020008
2018-10-03 05:05:28,0.00,0.00,0.00,21.19,25.45,27.64,-0.05,-2.34,1005.03,2034.71,3751.00,3074.98,3538.99,0.00,0.00,0.00,0000 0000 0000 A000 020008
2018-10-03 05:10:30,0.00,0.00,0.00,21.20,25.45,27.68,-0.05,-2.31,1005.35,2034.45,3750.99,3074.97,3538.99,0.00,0.00,0.00,0000 0000 0000 A000 020008
2018-10-03 05:15:31,0.00,0.00,0.00,21.22,25.46,27.66,-0.05,-2.33,1005.39,2034.35,3750.96,3074.97,3538.98,0.00,0.00,0.00,0000 0000 0000 A000 020008
2018-10-03 05:20:32,0.00,0.00,0.00,21.22,25.47,27.64,-0.05,-2.31,1005.38,2034.14,3750.97,3074.95,3538.96,0.00,0.00,0.00,0000 0000 0000 A000 020008
2018-10-03 05:25:33,0.00,0.00,0.00,21.24,25.47,27.66,-0.05,-2.33,1005.39,2034.15,3750.96,3074.91,3538.94,0.00,0.00,0.00,0000 0000 0000 A000 020008
2018-10-03 05:30:34,0.00,0.00,0.00,21.26,25.48,27.70,-0.05,-2.28,1005.39,2034.11,3750.92,3074.82,3538.89,0.00,0.00,0.00,0000 0000 0000 A000 020008
2018-10-03 05:35:36,0.00,0.00,0.00,21.27,25.50,27.69,-0.05,-2.30,1005.38,2034.05,3750.66,3074.48,3538.58,0.00,0.00,0.00,0000 0000 0000 A000 020008
2018-10-03 05:40:37,0.00,0.00,0.00,21.29,25.50,27.71,-0.05,-2.26,1005.39,2034.01,3750.29,3074.16,3538.18,0.00,0.00,0.00,0000 0000 0000 A000 020008
2018-10-03 05:45:39,0.00,0.00,0.00,21.31,25.51,27.72,-0.05,-2.33,1005.39,2034.01,3750.10,3074.03,3538.05,0.00,0.00,0.00,0000 0000 0000 A000 020008
2018-10-03 05:50:40,0.00,0.00,0.00,21.32,25.52,27.78,-0.05,-2.33,1005.39,2034.01,3750.05,3074.02,3538.03,0.00,0.00,0.00,0000 0000 0000 A000 020008
2018-10-03 05:55:41,0.00,0.00,0.00,21.34,25.52,27.77,-0.05,-2.29,1005.40,2034.00,3750.01,3074.01,3538.01,0.00,0.00,0.00,0000 0000 0000 A000 020008
2018-10-03 06:00:42,0.00,0.00,0.00,21.35,25.54,27.80,-0.05,-2.36,1005.42,2034.00,3750.01,3074.01,3538.00,0.00,0.00,0.00,0000 0000 0000 A000 020008
2018-10-03 06:05:43,0.00,0.00,0.00,21.37,25.55,27.79,-0.05,-2.35,1005.48,2034.00,3750.00,3074.00,3538.00,0.00,0.00,0.00,0000 0000 0000 A000 020008
2018-10-03 06:10:44,0.00,0.00,0.00,21.38,25.56,27.83,-0.05,-2.35,1005.45,2034.00,3750.00,3074.00,3538.00,0.00,0.00,0.00,0000 0000 0000 A000 020008
2018-10-03 06:15:46,0.00,0.00,0.00,21.39,25.57,27.81,-0.05,-2.28,1005.41,2034.00,3750.00,3074.00,3538.00,0.00,0.00,0.00,0000 0000 0000 A000 020008
2018-10-03 06:20:47,0.00,0.00,0.00,21.40,25.58,27.81,-0.05,-2.34,1005.44,2034.00,3749.99,3073.99,3537.98,0.00,0.00,0.00,0000 0000 0000 A000 020008
2018-10-03 06:25:48,0.00,0.00,0.00,21.42,25.60,27.85,-0.05,-2.33,1005.60,2034.00,3749.98,3073.99,3537.97,0.00,0.00,0.00,0000 0000 0000 A000 020008
2018-10-03 06:30:49,0.00,0.00,0.00,21.44,25.61,27.86,-0.05,-2.36,1005.72,2033.99,3749.97,3073.97,3537.92,0.00,0.00,0.00,0000 0000 0000 A000 020008
2018-10-03 06:35:50,0.00,0.00,0.00,21.44,25.62,27.93,-0.05,-2.35,1005.84,2033.98,3749.97,3073.96,3537.83,0.00,0.00,0.00,0000 0000 0000 A000 020008
2018-10-03 06:40:52,0.00,0.00,0.00,21.47,25.63,27.93,-0.05,-2.34,1005.86,2033.98,3749.96,3073.94,3537.74,0.00,0.00,0.00,0000 0000 0000 A000 020008
2018-10-03 06:45:53,0.00,0.00,0.00,21.48,25.65,27.95,-0.05,-2.38,1005.87,2033.98,3749.82,3073.80,3537.39,0.00,0.00,0.00,0000 0000 0000 A000 020008
2018-10-03 06:50:54,0.00,0.00,0.00,21.49,25.65,27.95,-0.05,-2.36,1005.88,2033.98,3749.46,3073.58,3537.11,0.00,0.00,0.00,0000 0000 0000 A000 020008
2018-10-03 06:55:55,0.00,0.00,0.00,21.51,25.67,27.96,-0.05,-2.39,1005.87,2033.95,3749.17,3073.23,3537.04,0.00,0.00,0.00,0000 0000 0000 A000 020008
2018-10-03 07:00:56,0.00,0.00,0.00,21.52,25.68,27.95,-0.05,-2.37,1005.88,2033.84,3749.04,3073.06,3537.00,0.00,0.00,0.00,0000 0000 0000 A000 020008
2018-10-03 07:05:57,0.00,0.00,0.00,21.53,25.70,28.02,-0.05,-2.40,1005.88,2033.68,3749.01,3073.02,3537.00,0.00,0.00,0.00,0000 0000 0000 A000 020008
2018-10-03 07:10:59,0.00,0.00,0.00,21.54,25.70,27.98,-0.05,-2.42,1005.90,2033.43,3749.00,3073.00,3537.00,0.00,0.00,0.00,0000 0000 0000 A000 020008
2018-10-03 07:16:00,0.00,0.00,0.00,21.55,25.72,28.00,-0.05,-2.42,1006.01,2033.24,3749.00,3073.00,3536.99,0.00,0.00,0.00,0000 0000 0000 A000 020008
2018-10-03 07:21:01,0.00,0.00,0.00,21.56,25.73,28.06,-0.05,-2.36,1006.25,2033.11,3749.00,3073.00,3536.98,0.00,0.00,0.00,0000 0000 0000 A000 020008
2018-10-03 07:26:02,0.00,0.00,0.00,21.57,25.75,28.05,-0.05,-2.38,1006.33,2033.07,3748.99,3072.99,3536.96,0.00,0.00,0.00,0000 0000 0000 A000 020008
2018-10-03 07:31:03,0.00,0.00,0.00,21.59,25.75,28.04,-0.05,-2.37,1006.34,2033.06,3748.98,3072.98,3536.77,0.00,0.00,0.00,0000 0000 0000 A000 020008
2018-10-03 07:36:04,0.00,0.00,0.00,21.61,25.77,28.06,-0.05,-2.37,1006.35,2033.02,3748.95,3072.98,3536.34,0.00,0.00,0.00,0000 0000 0000 A000 020008
2018-10-03 07:41:05,0.00,0.00,0.00,21.62,25.78,28.06,-0.05,-2.38,1006.36,2033.00,3748.69,3072.95,3536.08,0.00,0.00,0.00,0000 0000 0000 A000 020008
2018-10-03 07:46:07,0.00,0.00,0.00,21.64,25.80,28.08,-0.05,-2.38,1006.37,2033.00,3748.41,3072.85,3536.03,0.00,0.00,0.00,0000 0000 0000 A000 020008
2018-10-03 07:51:08,0.00,0.00,0.00,21.66,25.81,28.11,-0.05,-2.46,1006.47,2033.00,3748.34,3072.67,3536.03,0.00,0.00,0.00,0000 0000 0000 A000 020008
2018-10-03 07:56:09,0.00,0.00,0.00,21.67,25.82,28.11,-0.05,-2.43,1006.59,2033.00,3748.07,3072.28,3536.01,0.00,0.00,0.00,0000 0000 0000 A000 020008
2018-10-03 08:01:10,0.00,0.00,0.00,21.67,25.83,28.12,-0.05,-2.35,1006.75,2033.00,3748.00,3072.09,3536.00,0.00,0.00,0.00,0000 0000 0000 A000 020008
2018-10-03 08:06:11,0.00,0.00,0.00,21.67,25.85,28.18,-0.05,-2.42,1006.84,2033.00,3748.00,3072.02,3535.99,0.00,0.00,0.00,0000 0000 0000 A000 020008
2018-10-03 08:11:12,0.00,0.00,0.00,21.67,25.86,28.14,-0.05,-2.49,1006.85,2033.00,3748.00,3072.00,3535.98,0.00,0.00,0.00,0000 0000 0000 A000 020008
2018-10-03 08:16:14,0.00,0.00,0.00,21.69,25.87,28.14,-0.05,-2.47,1006.86,2032.98,3747.98,3072.00,3535.96,0.00,0.00,0.00,0000 0000 0000 A000 020008
2018-10-03 08:21:15,0.00,0.00,0.00,21.69,25.89,28.14,-0.05,-2.44,1006.87,2032.97,3747.97,3072.00,3535.70,0.00,0.00,0.00,0000 0000 0000 A000 020008
2018-10-03 08:26:15,0.00,0.00,0.00,21.69,25.90,28.16,-0.05,-2.47,1006.88,2032.95,3747.93,3071.99,3535.35,0.00,0.00,0.00,0000 0000 0000 A000 020008
2018-10-03 08:31:17,0.00,0.00,0.00,21.69,25.91,28.17,-0.05,-2.37,1006.90,2032.91,3747.87,3071.99,3535.22,0.00,0.00,0.00,0000 0000 0000 A000 020008
2018-10-03 08:36:18,0.00,0.00,0.00,21.69,25.92,28.18,-0.05,-2.48,1006.92,2032.81,3747.53,3071.97,3535.04,0.00,0.00,0.00,0000 0000 0000 A000 020008
2018-10-03 08:41:19,0.00,0.00,0.00,21.70,25.93,28.19,-0.05,-2.44,1006.94,2032.53,3747.22,3071.87,3535.01,0.00,0.00,0.00,0000 0000 0000 A000 020008
2018-10-03 08:46:20,0.00,0.00,0.00,21.70,25.95,28.20,-0.05,-2.42,1007.00,2032.31,3747.09,3071.79,3535.00,0.00,0.00,0.00,0000 0000 0000 A000 020008
2018-10-03 08:51:21,0.00,0.00,0.00,21.70,25.95,28.20,-0.05,-2.49,1007.24,2032.13,3747.01,3071.37,3535.00,0.00,0.00,0.00,0000 0000 0000 A000 020008
2018-10-03 08:56:23,0.00,0.00,0.00,21.71,25.97,28.23,-0.05,-2.47,1007.23,2032.06,3747.00,3071.12,3534.99,0.00,0.00,0.00,0000 0000 0000 A000 020008
2018-10-03 09:01:24,0.00,0.00,0.00,21.71,25.97,28.23,-0.05,-2.50,1007.32,2032.03,3747.00,3071.05,3534.98,0.00,0.00,0.00,0000 0000 0000 A000 020008
2018-10-03 09:06:25,0.00,0.00,0.00,21.70,25.98,28.19,-0.05,-2.45,1007.33,2032.03,3747.00,3071.03,3534.98,0.00,0.00,0.00,0000 0000 0000 A000 020008
2018-10-03 09:11:26,0.00,0.00,0.00,21.70,26.00,28.17,-0.05,-2.45,1007.34,2032.01,3747.00,3071.01,3534.88,0.00,0.00,0.00,0000 0000 0000 A000 020008
2018-10-03 09:16:27,0.00,0.00,0.00,21.70,26.00,28.20,-0.05,-2.47,1007.34,2032.00,3746.99,3071.00,3534.55,0.00,0.00,0.00,0000 0000 0000 A000 020008
2018-10-03 09:21:28,0.00,0.00,0.00,21.70,26.00,28.21,-0.05,-2.49,1007.34,2032.00,3746.99,3071.00,3534.30,0.00,0.00,0.00,0000 0000 0000 A000 020008
2018-10-03 09:26:29,0.00,0.00,0.00,21.70,26.02,28.20,-0.05,-2.47,1007.35,2032.00,3746.97,3071.00,3534.15,0.00,0.00,0.00,0000 0000 0000 A000 020008
2018-10-03 09:31:30,0.00,0.00,0.00,21.70,26.02,28.19,-0.05,-2.53,1007.37,2032.00,3746.92,3071.00,3534.05,0.00,0.00,0.00,0000 0000 0000 A000 020008
2018-10-03 09:36:32,0.00,0.00,0.00,21.69,26.02,28.19,-0.05,-2.48,1007.37,2032.00,3746.92,3071.00,3534.04,0.00,0.00,0.00,0000 0000 0000 A000 020008
2018-10-03 09:41:33,0.00,0.00,0.00,21.69,26.03,28.17,-0.05,-2.48,1007.40,2032.00,3746.92,3071.00,3534.07,0.00,0.00,0.00,0000 0000 0000 A000 020008
2018-10-03 09:46:34,0.00,0.00,0.00,21.69,26.05,28.17,-0.05,-2.46,1007.43,2032.00,3746.67,3071.00,3534.01,0.00,0.00,0.00,0000 0000 0000 A000 020008
2018-10-03 09:51:35,0.00,0.00,0.00,21.69,26.05,28.18,-0.05,-2.48,1007.52,2032.00,3746.82,3071.00,3534.01,0.00,0.00,0.00,0000 0000 0000 A000 020008
2018-10-03 09:56:36,0.00,0.00,0.00,21.69,26.05,28.17,-0.05,-2.46,1007.72,2032.00,3746.44,3071.00,3534.01,0.00,0.00,0.00,0000 0000 0000 A000 020008
2018-10-03 10:01:38,0.00,0.00,0.00,21.69,26.05,28.18,-0.05,-2.48,1007.81,2032.00,3746.06,3071.00,3534.00,0.00,0.00,0.00,0000 0000 0000 A000 020008
2018-10-03 10:06:39,0.00,0.00,0.00,21.69,26.06,28.18,-0.05,-2.51,1007.82,2032.00,3746.03,3070.98,3534.00,0.00,0.00,0.00,0000 0000 0000 A000 020008
2018-10-03 10:11:40,0.00,0.00,0.00,21.69,26.07,28.20,-0.05,-2.42,1007.83,2031.99,3746.02,3070.97,3534.00,0.00,0.00,0.00,0000 0000 0000 A000 020008
2018-10-03 10:16:41,0.00,0.00,0.00,21.69,26.07,28.22,-0.05,-2.51,1007.83,2031.99,3746.04,3070.97,3534.00,0.00,0.00,0.00,0000 0000 0000 A000 020008
2018-10-03 10:21:43,0.00,0.00,0.00,21.68,26.07,28.18,-0.05,-2.49,1007.83,2031.98,3746.01,3070.94,3533.99,0.00,0.00,0.00,0000 0000 0000 A000 020008
2018-10-03 10:26:44,0.00,0.00,0.00,21.67,26.07,28.21,-0.05,-2.50,1007.85,2031.98,3746.00,3070.85,3533.99,0.00,0.00,0.00,0000 0000 0000 A000 020008
2018-10-03 10:31:45,0.00,0.00,0.00,21.68,26.07,28.18,-0.05,-2.52,1007.87,2031.99,3746.00,3070.92,3533.98,0.00,0.00,0.00,0000 0000 0000 A000 020008
2018-10-03 10:36:46,0.00,0.00,0.00,21.67,26.07,28.18,-0.05,-2.46,1007.95,2031.99,3746.01,3070.94,3533.98,0.00,0.00,0.00,0000 0000 0000 A000 020008
2018-10-03 10:41:47,0.00,0.00,0.00,21.67,26.07,28.14,-0.06,-2.50,1008.05,2031.99,3746.00,3070.95,3533.99,0.00,0.00,0.00,0000 0000 0000 A000 020008
2018-10-03 10:46:48,0.00,0.00,0.00,21.67,26.07,28.13,-0.06,-2.51,1008.22,2031.99,3746.03,3070.95,3533.99,0.00,0.00,0.00,0000 0000 0000 A000 020008
2018-10-03 10:51:50,0.00,0.00,0.00,21.67,26.08,28.17,-0.05,-2.49,1008.28,2031.99,3746.01,3070.96,3533.99,0.00,0.00,0.00,0000 0000 0000 A000 020008
2018-10-03 10:56:51,0.00,0.00,0.00,21.67,26.08,28.17,-0.05,-2.49,1008.31,2031.99,3746.01,3070.92,3533.98,0.00,0.00,0.00,0000 0000 0000 A000 020008
2018-10-03 11:01:52,0.00,0.00,0.00,21.67,26.08,28.18,-0.05,-2.50,1008.31,2031.98,3746.01,3070.92,3533.98,0.00,0.00,0.00,0000 0000 0000 A000 020008
2018-10-03 11:06:53,0.00,0.00,0.00,21.67,26.09,28.20,-0.05,-2.52,1008.31,2031.98,3746.00,3070.85,3533.98,0.00,0.00,0.00,0000 0000 0000 A000 020008
2018-10-03 11:11:55,0.00,0.00,0.00,21.66,26.09,28.14,-0.05,-2.51,1008.31,2031.98,3746.00,3070.90,3533.98,0.00,0.00,0.00,0000 0000 0000 A000 020008
2018-10-03 11:16:56,0.00,0.00,0.00,21.64,26.08,28.21,-0.06,-2.52,1008.32,2031.98,3746.00,3070.87,3533.97,0.00,0.00,0.00,0000 0000 0000 A000 020008
2018-10-03 11:21:57,0.00,0.00,0.00,21.64,26.08,28.23,-0.06,-2.52,1008.33,2031.99,3746.00,3070.77,3533.98,0.00,0.00,0.00,0000 0000 0000 A000 020008
2018-10-03 11:26:58,0.00,0.00,0.00,21.64,26.08,28.17,-0.05,-2.54,1008.33,2031.98,3746.00,3070.62,3533.96,0.00,0.00,0.00,0000 0000 0000 A000 020008
2018-10-03 11:31:59,0.00,0.00,0.00,21.64,26.08,28.17,-0.06,-2.54,1008.33,2031.97,3746.00,3070.55,3533.95,0.00,0.00,0.00,0000 0000 0000 A000 020008
2018-10-03 11:37:00,0.00,0.00,0.00,21.64,26.08,28.14,-0.06,-2.53,1008.34,2031.98,3746.00,3070.68,3533.96,0.00,0.00,0.00,0000 0000 0000 A000 020008
2018-10-03 11:42:02,0.00,0.00,0.00,21.64,26.08,28.15,-0.06,-2.51,1008.38,2031.98,3746.00,3070.72,3533.95,0.00,0.00,0.00,0000 0000 0000 A000 020008
2018-10-03 11:47:03,0.00,0.00,0.00,21.64,26.07,28.14,-0.06,-2.52,1008.44,2031.98,3746.00,3070.72,3533.96,0.00,0.00,0.00,0000 0000 0000 A000 020008
2018-10-03 11:52:04,0.00,0.00,0.00,21.64,26.07,28.11,-0.06,-2.52,1008.58,2031.96,3746.00,3070.50,3533.93,0.00,0.00,0.00,0000 0000 0000 A000 020008
2018-10-03 11:57:05,0.00,0.00,0.00,21.63,26.07,28.15,-0.06,-2.56,1008.74,2031.96,3746.00,3070.40,3533.93,0.00,0.00,0.00,0000 0000 0000 A000 020008
2018-10-03 12:02:06,0.00,0.00,0.00,21.62,26.07,28.17,-0.07,-2.54,1008.78,2031.98,3746.00,3070.44,3533.90,0.00,0.00,0.00,0000 0000 0000 A000 020008
2018-10-03 12:07:08,0.00,0.00,0.00,21.62,26.07,28.12,-0.06,-2.53,1008.80,2031.98,3746.01,3070.91,3533.97,0.00,0.00,0.00,0000 0000 0000 A000 020008
2018-10-03 12:12:09,0.00,0.00,0.00,21.62,26.07,28.12,-0.07,-2.57,1008.80,2031.98,3746.00,3070.75,3533.95,0.00,0.00,0.00,0000 0000 0000 A000 020008
2018-10-03 12:17:10,0.00,0.00,0.00,21.62,26.07,28.12,-0.07,-2.55,1008.80,2031.98,3746.01,3070.86,3533.97,0.00,0.00,0.00,0000 0000 0000 A000 020008
2018-10-03 12:22:11,0.00,0.00,0.00,21.62,26.07,28.13,-0.06,-2.52,1008.80,2031.99,3746.00,3070.68,3533.96,0.00,0.00,0.00,0000 0000 0000 A000 020008
2018-10-03 12:27:12,0.00,0.00,0.00,21.63,26.07,28.12,-0.07,-2.54,1008.80,2031.98,3746.00,3070.80,3533.97,0.00,0.00,0.00,0000 0000 0000 A000 020008
2018-10-03 12:32:14,0.00,0.00,0.00,21.63,26.07,28.11,-0.07,-2.52,1008.80,2031.98,3746.00,3070.92,3533.98,0.00,0.00,0.00,0000 0000 0000 A000 020008
2018-10-03 12:37:15,0.00,0.00,0.00,21.63,26.07,28.14,-0.07,-2.58,1008.81,2031.98,3746.00,3070.91,3533.97,0.00,0.00,0.00,0000 0000 0000 A000 020008
2018-10-03 12:42:16,0.00,0.00,0.00,21.62,26.07,28.15,-0.06,-2.56,1008.85,2031.99,3746.00,3070.92,3533.98,0.00,0.00,0.00,0000 0000 0000 A000 020008
2018-10-03 12:47:17,0.00,0.00,0.00,21.64,26.07,28.12,-0.07,-2.69,1009.21,2031.99,3746.01,3070.95,3533.99,0.00,0.00,0.00,0000 0000 0000 A000 020008
2018-10-03 12:52:19,0.00,0.00,0.00,21.64,26.07,28.13,-0.07,-2.66,1009.28,2031.98,3746.00,3070.93,3533.98,0.00,0.00,0.00,0000 0000 0000 A000 020008
2018-10-03 12:57:20,0.00,0.00,0.00,21.64,26.07,28.12,-0.06,-2.72,1009.29,2031.98,3746.00,3070.88,3533.98,0.00,0.00,0.00,0000 0000 0000 A000 020008
2018-10-03 13:02:21,0.00,0.00,0.00,21.64,26.07,28.14,-0.07,-2.74,1009.28,2031.99,3746.01,3070.96,3533.98,0.00,0.00,0.00,0000 0000 0000 A000 020008
2018-10-03 13:07:22,0.00,0.00,0.00,21.66,26.07,28.15,-0.06,-2.73,1009.29,2031.98,3746.02,3070.98,3533.99,0.00,0.00,0.00,0000 0000 0000 A000 020008
2018-10-03 13:12:24,0.00,0.00,0.00,21.67,26.07,28.16,-0.07,-2.73,1009.29,2031.99,3746.02,3070.96,3533.99,0.00,0.00,0.00,0000 0000 0000 A000 020008
2018-10-03 13:17:25,0.00,0.00,0.00,21.67,26.07,28.18,-0.07,-2.75,1009.31,2031.98,3746.01,3070.94,3533.99,0.00,0.00,0.00,0000 0000 0000 A000 020008
2018-10-03 13:22:26,0.00,0.00,0.00,21.67,26.07,28.13,-0.07,-2.68,1009.44,2031.98,3746.02,3070.93,3533.97,0.00,0.00,0.00,0000 0000 0000 A000 020008